GEC711 EPKK-EDDS

Flight info

Callsign GEC711
Flight time 1h 19m
Altitude 34000
Route ADADO DCT LANUX DCT BUBSE DCT KIRDI DCT EBEDA L173 MAH/N0420F240 L173 DODIL T127 TEKSI TEKSI1W
Aircraft MD11/H-SDE1E2E3FGHIJ2J3J4J5M1RWXY/LB1D1

Departure

Time 2026-05-06 19:25
Airport Kraków John Paul II International Airport (EPKK)

Arrival

Time 2026-05-06 20:44
Airport Stuttgart Airport (EDDS)
Time Latitude Longitude Altitude Speed Heading
2026-05-06 18:47 50.07591 19.79463 797 ft 0 kts 348°
2026-05-06 19:12 50.07598 19.79461 797 ft 3 kts 348°
2026-05-06 19:12 50.07690 19.79463 797 ft 19 kts 20°
2026-05-06 19:12 50.07702 19.79479 797 ft 0 kts 57°
2026-05-06 19:12 50.07702 19.79495 797 ft 2 kts 91°
2026-05-06 19:13 50.07696 19.79517 797 ft 2 kts 115°
2026-05-06 19:13 50.07686 19.79549 797 ft 3 kts 114°
2026-05-06 19:13 50.07681 19.79612 797 ft 9 kts 89°
2026-05-06 19:13 50.07691 19.79725 797 ft 11 kts 78°
2026-05-06 19:14 50.07709 19.79842 797 ft 12 kts 77°
2026-05-06 19:14 50.07728 19.79973 797 ft 12 kts 77°
2026-05-06 19:14 50.07745 19.80101 797 ft 12 kts 78°
2026-05-06 19:14 50.07763 19.80227 797 ft 11 kts 78°
2026-05-06 19:15 50.07775 19.80312 797 ft 7 kts 72°
2026-05-06 19:15 50.07784 19.80331 797 ft 0 kts 46°
2026-05-06 19:19 50.07790 19.80335 797 ft 2 kts 32°
2026-05-06 19:19 50.07806 19.80341 797 ft 3 kts 11°
2026-05-06 19:19 50.07826 19.80342 797 ft 2 kts 357°
2026-05-06 19:20 50.07830 19.80340 797 ft 0 kts 348°
2026-05-06 19:22 50.07837 19.80338 797 ft 3 kts 348°
2026-05-06 19:22 50.07891 19.80320 797 ft 12 kts 348°
2026-05-06 19:23 50.07976 19.80290 796 ft 11 kts 347°
2026-05-06 19:23 50.08011 19.80250 796 ft 4 kts 290°
2026-05-06 19:23 50.08012 19.80191 797 ft 6 kts 264°
2026-05-06 19:23 50.08007 19.80157 797 ft 0 kts 258°
2026-05-06 19:24 50.08007 19.80156 797 ft 0 kts 258°
2026-05-06 19:24 50.07998 19.80089 797 ft 28 kts 258°
2026-05-06 19:24 50.07889 19.79307 797 ft 118 kts 257°
2026-05-06 19:25 50.07665 19.77700 885 ft 174 kts 258°
2026-05-06 19:25 50.07422 19.75985 2047 ft 150 kts 259°
2026-05-06 19:25 50.07193 19.74328 2823 ft 170 kts 258°
2026-05-06 19:25 50.06942 19.72540 3718 ft 172 kts 259°
2026-05-06 19:26 50.06677 19.70630 4313 ft 197 kts 259°
2026-05-06 19:26 50.06356 19.68310 4450 ft 239 kts 258°
2026-05-06 19:26 50.05980 19.65627 4972 ft 258 kts 257°
2026-05-06 19:26 50.05596 19.62909 6075 ft 262 kts 256°
2026-05-06 19:27 50.05369 19.60091 7122 ft 267 kts 271°
2026-05-06 19:27 50.05623 19.57202 8126 ft 273 kts 278°
2026-05-06 19:27 50.05992 19.54273 9115 ft 277 kts 278°
2026-05-06 19:27 50.06353 19.51300 10036 ft 283 kts 278°
2026-05-06 19:28 50.06712 19.48109 10245 ft 316 kts 277°
2026-05-06 19:28 50.07083 19.44551 10439 ft 347 kts 276°
2026-05-06 19:28 50.07451 19.40807 11313 ft 352 kts 276°
2026-05-06 19:28 50.07810 19.37025 12284 ft 356 kts 276°
2026-05-06 19:29 50.08161 19.33195 13198 ft 359 kts 275°
2026-05-06 19:29 50.08496 19.29468 13979 ft 363 kts 275°
2026-05-06 19:29 50.08843 19.25546 14771 ft 368 kts 275°
2026-05-06 19:29 50.09187 19.21635 15526 ft 372 kts 275°
2026-05-06 19:30 50.09536 19.17624 16255 ft 376 kts 274°
2026-05-06 19:30 50.09887 19.13561 16953 ft 380 kts 274°
2026-05-06 19:30 50.10239 19.09472 17630 ft 384 kts 274°
2026-05-06 19:30 50.10596 19.05328 18261 ft 388 kts 274°
2026-05-06 19:31 50.10954 19.01151 18895 ft 391 kts 274°
2026-05-06 19:31 50.11310 18.96955 19538 ft 394 kts 274°
2026-05-06 19:31 50.12028 18.88436 20714 ft 400 kts 274°
2026-05-06 19:32 50.12389 18.84124 21322 ft 402 kts 274°
2026-05-06 19:32 50.12751 18.79795 21908 ft 405 kts 274°
2026-05-06 19:32 50.13114 18.75426 22472 ft 408 kts 274°
2026-05-06 19:32 50.13474 18.71079 23077 ft 411 kts 274°
2026-05-06 19:33 50.13838 18.66648 23679 ft 413 kts 274°
2026-05-06 19:33 50.14202 18.62192 24272 ft 415 kts 273°
2026-05-06 19:33 50.14206 18.57708 24797 ft 413 kts 259°
2026-05-06 19:33 50.13467 18.53396 25386 ft 413 kts 245°
2026-05-06 19:34 50.12035 18.49534 25952 ft 414 kts 232°
2026-05-06 19:34 50.10059 18.46257 26497 ft 417 kts 223°
2026-05-06 19:34 50.08631 18.44227 26827 ft 420 kts 223°
2026-05-06 19:34 50.06538 18.41057 27396 ft 421 kts 227°
2026-05-06 19:35 50.04010 18.36445 28087 ft 425 kts 233°
2026-05-06 19:35 50.02277 18.32714 28612 ft 427 kts 236°
2026-05-06 19:35 50.00635 18.28847 29096 ft 430 kts 237°
2026-05-06 19:35 49.99043 18.24908 29620 ft 431 kts 238°
2026-05-06 19:36 49.97475 18.20948 30220 ft 430 kts 238°
2026-05-06 19:36 49.96447 18.18340 30649 ft 428 kts 238°
2026-05-06 19:36 49.94896 18.14408 31321 ft 424 kts 238°
2026-05-06 19:36 49.93365 18.10539 31978 ft 419 kts 238°
2026-05-06 19:37 49.91837 18.06693 32518 ft 418 kts 239°
2026-05-06 19:37 49.90318 18.02880 32884 ft 413 kts 238°
2026-05-06 19:37 49.88816 17.99119 33266 ft 410 kts 239°
2026-05-06 19:37 49.87317 17.95373 33623 ft 407 kts 239°
2026-05-06 19:38 49.85824 17.91646 33738 ft 406 kts 239°
2026-05-06 19:38 49.84328 17.87919 33761 ft 409 kts 239°
2026-05-06 19:38 49.81321 17.80444 33780 ft 409 kts 239°
2026-05-06 19:39 49.78319 17.73004 33779 ft 410 kts 239°
2026-05-06 19:39 49.75293 17.65524 33785 ft 411 kts 238°
2026-05-06 19:40 49.72258 17.58046 33782 ft 411 kts 238°
2026-05-06 19:40 49.69196 17.50578 33781 ft 411 kts 238°
2026-05-06 19:41 49.66112 17.43128 33760 ft 412 kts 238°
2026-05-06 19:41 49.63045 17.35671 33783 ft 413 kts 238°
2026-05-06 19:42 49.59979 17.28203 33761 ft 413 kts 238°
2026-05-06 19:42 49.56924 17.20778 33761 ft 413 kts 238°
2026-05-06 19:43 49.53840 17.13307 33773 ft 413 kts 238°
2026-05-06 19:43 49.50754 17.05851 33759 ft 413 kts 238°
2026-05-06 19:44 49.47663 16.98401 33772 ft 413 kts 238°
2026-05-06 19:44 49.44561 16.90948 33764 ft 414 kts 238°
2026-05-06 19:45 49.41449 16.83496 33759 ft 414 kts 237°
2026-05-06 19:45 49.38333 16.76052 33755 ft 414 kts 237°
2026-05-06 19:46 49.35233 16.68667 33745 ft 414 kts 237°
2026-05-06 19:46 49.32111 16.61248 33754 ft 415 kts 237°
2026-05-06 19:47 49.28976 16.53822 33749 ft 415 kts 237°
2026-05-06 19:47 49.25841 16.46421 33746 ft 415 kts 237°
2026-05-06 19:48 49.22668 16.39052 33753 ft 415 kts 237°
2026-05-06 19:48 49.19523 16.31725 33746 ft 415 kts 237°
2026-05-06 19:49 49.16369 16.24352 33746 ft 414 kts 237°
2026-05-06 19:49 49.13214 16.16981 33751 ft 415 kts 237°
2026-05-06 19:50 49.10051 16.09605 33743 ft 415 kts 237°
2026-05-06 19:50 49.06889 16.02235 33752 ft 416 kts 237°
2026-05-06 19:51 49.03738 15.94937 33740 ft 413 kts 236°
2026-05-06 19:51 49.00569 15.87620 33749 ft 415 kts 236°
2026-05-06 19:52 48.97377 15.80280 33750 ft 415 kts 236°
2026-05-06 19:52 48.94185 15.72947 33752 ft 416 kts 236°
2026-05-06 19:53 48.90990 15.65625 33753 ft 417 kts 236°
2026-05-06 19:53 48.87811 15.58241 33766 ft 417 kts 239°
2026-05-06 19:54 48.85237 15.50413 33774 ft 418 kts 244°
2026-05-06 19:54 48.82899 15.42319 33772 ft 418 kts 245°
2026-05-06 19:55 48.80559 15.34239 33758 ft 418 kts 244°
2026-05-06 19:55 48.78195 15.26196 33769 ft 418 kts 244°
2026-05-06 19:56 48.75809 15.18157 33763 ft 418 kts 244°
2026-05-06 19:56 48.73422 15.10134 33784 ft 417 kts 244°
2026-05-06 19:57 48.71056 15.02201 33786 ft 417 kts 244°
2026-05-06 19:57 48.68661 14.94206 33787 ft 417 kts 244°
2026-05-06 19:58 48.66262 14.86220 33800 ft 417 kts 244°
2026-05-06 19:58 48.63862 14.78263 33811 ft 416 kts 244°
2026-05-06 19:59 48.61465 14.70342 33813 ft 416 kts 244°
2026-05-06 19:59 48.59059 14.62415 33807 ft 415 kts 243°
2026-05-06 20:00 48.56647 14.54496 33820 ft 415 kts 243°
2026-05-06 20:00 48.54232 14.46592 33822 ft 414 kts 243°
2026-05-06 20:01 48.51794 14.38729 33825 ft 414 kts 243°
2026-05-06 20:01 48.49349 14.30886 33823 ft 413 kts 243°
2026-05-06 20:02 48.46916 14.23033 33824 ft 413 kts 243°
2026-05-06 20:02 48.44490 14.15195 33828 ft 413 kts 243°
2026-05-06 20:03 48.42065 14.07379 33832 ft 413 kts 243°
2026-05-06 20:03 48.39632 13.99569 33830 ft 413 kts 243°
2026-05-06 20:04 48.37192 13.91751 33828 ft 412 kts 243°
2026-05-06 20:04 48.34750 13.83947 33829 ft 412 kts 243°
2026-05-06 20:05 48.32319 13.76207 33832 ft 412 kts 243°
2026-05-06 20:05 48.29865 13.68424 33839 ft 412 kts 243°
2026-05-06 20:06 48.27408 13.60658 33840 ft 412 kts 243°
2026-05-06 20:06 48.24947 13.52899 33849 ft 412 kts 243°
2026-05-06 20:07 48.22553 13.45090 33850 ft 413 kts 248°
2026-05-06 20:07 48.21599 13.36611 33864 ft 421 kts 263°
2026-05-06 20:08 48.21551 13.27796 33869 ft 423 kts 265°
2026-05-06 20:08 48.21507 13.18985 33884 ft 422 kts 264°
2026-05-06 20:09 48.21376 13.10190 33887 ft 422 kts 264°
2026-05-06 20:09 48.21204 13.01390 33894 ft 422 kts 264°
2026-05-06 20:10 48.21020 12.92659 33895 ft 422 kts 263°
2026-05-06 20:10 48.20818 12.83863 33893 ft 422 kts 262°
2026-05-06 20:11 48.20340 12.75110 33901 ft 421 kts 260°
2026-05-06 20:11 48.19739 12.66391 33894 ft 421 kts 260°
2026-05-06 20:12 48.19144 12.57676 33894 ft 421 kts 260°
2026-05-06 20:12 48.18562 12.49009 33899 ft 421 kts 260°
2026-05-06 20:13 48.17973 12.40281 33893 ft 421 kts 260°
2026-05-06 20:13 48.17377 12.31555 33897 ft 422 kts 260°
2026-05-06 20:14 48.16775 12.22837 33893 ft 422 kts 260°
2026-05-06 20:14 48.16191 12.14134 33887 ft 423 kts 262°
2026-05-06 20:15 48.16383 12.05274 33884 ft 428 kts 270°
2026-05-06 20:15 48.17008 11.96398 33884 ft 429 kts 271°
2026-05-06 20:16 48.17638 11.87513 33888 ft 429 kts 270°
2026-05-06 20:16 48.18496 11.78645 33885 ft 433 kts 276°
2026-05-06 20:17 48.19921 11.69845 33885 ft 435 kts 278°
2026-05-06 20:17 48.21415 11.61128 33890 ft 435 kts 278°
2026-05-06 20:18 48.22886 11.52324 33891 ft 435 kts 278°
2026-05-06 20:18 48.24334 11.43485 33893 ft 436 kts 278°
2026-05-06 20:19 48.25851 11.34671 33896 ft 439 kts 282°
2026-05-06 20:19 48.27077 11.30424 33892 ft 449 kts 293°
2026-05-06 20:19 48.28869 11.26536 33896 ft 459 kts 303°
2026-05-06 20:20 48.33322 11.19727 33756 ft 450 kts 309°
2026-05-06 20:20 48.35566 11.16545 33389 ft 440 kts 309°
2026-05-06 20:20 48.37769 11.13345 32829 ft 440 kts 308°
2026-05-06 20:21 48.39935 11.10099 32215 ft 440 kts 307°
2026-05-06 20:21 48.42084 11.06803 31593 ft 441 kts 307°
2026-05-06 20:21 48.44222 11.03480 30975 ft 443 kts 307°
2026-05-06 20:21 48.46358 11.00140 30361 ft 445 kts 307°
2026-05-06 20:22 48.48514 10.96756 29752 ft 448 kts 307°
2026-05-06 20:22 48.50666 10.93343 29119 ft 450 kts 307°
2026-05-06 20:22 48.52819 10.89902 28494 ft 452 kts 307°
2026-05-06 20:22 48.54948 10.86490 27882 ft 454 kts 307°
2026-05-06 20:23 48.57119 10.83011 27255 ft 456 kts 307°
2026-05-06 20:23 48.59302 10.79521 26630 ft 457 kts 308°
2026-05-06 20:23 48.61490 10.76039 25993 ft 457 kts 308°
2026-05-06 20:23 48.63678 10.72571 25349 ft 454 kts 309°
2026-05-06 20:24 48.65847 10.69133 24733 ft 450 kts 309°
2026-05-06 20:24 48.67993 10.65726 24099 ft 446 kts 309°
2026-05-06 20:24 48.70122 10.62338 23460 ft 441 kts 309°
2026-05-06 20:24 48.72229 10.58981 22820 ft 437 kts 309°
2026-05-06 20:25 48.74196 10.55591 22192 ft 431 kts 304°
2026-05-06 20:25 48.75791 10.51820 21545 ft 421 kts 292°
2026-05-06 20:25 48.76771 10.47707 20933 ft 411 kts 279°
2026-05-06 20:25 48.77092 10.43460 20331 ft 402 kts 269°
2026-05-06 20:26 48.77503 10.39250 19731 ft 407 kts 283°
2026-05-06 20:26 48.78644 10.35327 19208 ft 408 kts 297°
2026-05-06 20:26 48.80186 10.31785 19018 ft 394 kts 302°
2026-05-06 20:26 48.81769 10.28516 18832 ft 377 kts 303°
2026-05-06 20:27 48.83340 10.25373 18631 ft 372 kts 303°
2026-05-06 20:27 48.84897 10.22280 18444 ft 370 kts 304°
2026-05-06 20:27 48.86406 10.19129 18243 ft 366 kts 296°
2026-05-06 20:27 48.87309 10.15585 17993 ft 357 kts 277°
2026-05-06 20:28 48.87392 10.11873 17594 ft 351 kts 261°
2026-05-06 20:28 48.87000 10.08241 16959 ft 346 kts 255°
2026-05-06 20:28 48.86480 10.04729 16353 ft 344 kts 254°
2026-05-06 20:28 48.85925 10.01231 15728 ft 341 kts 253°
2026-05-06 20:29 48.85361 9.97739 15099 ft 338 kts 253°
2026-05-06 20:29 48.84796 9.94283 14454 ft 336 kts 253°
2026-05-06 20:29 48.84231 9.90854 14078 ft 334 kts 253°
2026-05-06 20:29 48.83779 9.87412 13636 ft 334 kts 265°
2026-05-06 20:30 48.84093 9.83927 13263 ft 337 kts 287°
2026-05-06 20:30 48.86487 9.77821 12512 ft 332 kts 303°
2026-05-06 20:30 48.87824 9.75029 12143 ft 324 kts 303°
2026-05-06 20:31 48.89140 9.72310 11917 ft 311 kts 303°
2026-05-06 20:31 48.90397 9.69719 11866 ft 301 kts 303°
2026-05-06 20:31 48.91837 9.67431 11854 ft 303 kts 323°
2026-05-06 20:31 48.93741 9.66191 11859 ft 306 kts 348°
2026-05-06 20:32 48.95868 9.66233 11859 ft 309 kts 13°
2026-05-06 20:32 48.97826 9.67575 11754 ft 313 kts 37°
2026-05-06 20:32 48.99276 9.69979 11503 ft 308 kts 61°
2026-05-06 20:32 48.99948 9.73036 11247 ft 305 kts 86°
2026-05-06 20:33 48.99738 9.76212 10994 ft 301 kts 111°
2026-05-06 20:33 48.98719 9.78867 10743 ft 285 kts 137°
2026-05-06 20:33 48.97141 9.80536 10491 ft 271 kts 159°
2026-05-06 20:33 48.95429 9.81586 10244 ft 261 kts 163°
2026-05-06 20:34 48.93713 9.82179 9969 ft 247 kts 186°
2026-05-06 20:34 48.92134 9.81543 9864 ft 229 kts 210°
2026-05-06 20:34 48.90733 9.80362 9901 ft 226 kts 213°
2026-05-06 20:34 48.89399 9.79187 9835 ft 221 kts 213°
2026-05-06 20:35 48.88071 9.78022 9566 ft 218 kts 213°
2026-05-06 20:35 48.86764 9.76881 9329 ft 217 kts 214°
2026-05-06 20:35 48.85448 9.75759 9072 ft 216 kts 214°
2026-05-06 20:35 48.84130 9.74661 8821 ft 216 kts 214°
2026-05-06 20:36 48.82827 9.73593 8569 ft 215 kts 213°
2026-05-06 20:36 48.81500 9.72517 8332 ft 214 kts 213°
2026-05-06 20:36 48.80202 9.71472 8067 ft 213 kts 213°
2026-05-06 20:36 48.79048 9.70167 7799 ft 205 kts 237°
2026-05-06 20:37 48.78497 9.68228 7506 ft 201 kts 256°
2026-05-06 20:37 48.78153 9.66180 7106 ft 198 kts 256°
2026-05-06 20:37 48.77781 9.64179 6613 ft 197 kts 254°
2026-05-06 20:37 48.77177 9.62325 6102 ft 196 kts 240°
2026-05-06 20:38 48.76427 9.60624 5709 ft 191 kts 246°
2026-05-06 20:38 48.75946 9.58732 5532 ft 194 kts 253°
2026-05-06 20:38 48.75525 9.56801 5321 ft 194 kts 255°
2026-05-06 20:38 48.75148 9.54844 5131 ft 194 kts 255°
2026-05-06 20:39 48.74777 9.52891 4875 ft 188 kts 256°
2026-05-06 20:39 48.74433 9.51069 4663 ft 181 kts 255°
2026-05-06 20:39 48.74092 9.49266 4437 ft 174 kts 255°
2026-05-06 20:39 48.73759 9.47513 4233 ft 174 kts 255°
2026-05-06 20:40 48.73430 9.45748 3987 ft 175 kts 255°
2026-05-06 20:40 48.73098 9.43977 3799 ft 176 kts 255°
2026-05-06 20:40 48.72759 9.42196 3545 ft 176 kts 255°
2026-05-06 20:40 48.72444 9.40523 3304 ft 156 kts 255°
2026-05-06 20:41 48.72152 9.38968 3127 ft 153 kts 255°
2026-05-06 20:41 48.71844 9.37425 2934 ft 153 kts 253°
2026-05-06 20:41 48.71536 9.35848 2752 ft 158 kts 254°
2026-05-06 20:41 48.71246 9.34275 2511 ft 155 kts 255°
2026-05-06 20:42 48.70978 9.32720 2275 ft 151 kts 254°
2026-05-06 20:42 48.70693 9.31177 2115 ft 156 kts 253°
2026-05-06 20:42 48.70384 9.29607 1925 ft 154 kts 253°
2026-05-06 20:42 48.70091 9.28060 1697 ft 151 kts 254°
2026-05-06 20:43 48.69809 9.26540 1512 ft 150 kts 253°
2026-05-06 20:43 48.69508 9.25002 1311 ft 156 kts 254°
2026-05-06 20:43 48.69225 9.23449 1216 ft 139 kts 253°
2026-05-06 20:43 48.69006 9.22298 1246 ft 91 kts 254°
2026-05-06 20:44 48.68864 9.21559 1259 ft 56 kts 253°
2026-05-06 20:44 48.68768 9.21056 1270 ft 46 kts 254°
2026-05-06 20:44 48.68687 9.20628 1280 ft 39 kts 254°
2026-05-06 20:44 48.68619 9.20265 1289 ft 30 kts 254°
2026-05-06 20:45 48.68599 9.20161 1289 ft 7 kts 252°
2026-05-06 20:45 48.68566 9.20085 1291 ft 11 kts 217°
2026-05-06 20:45 48.68500 9.20063 1293 ft 10 kts 172°
2026-05-06 20:45 48.68427 9.20091 1295 ft 11 kts 163°
2026-05-06 20:46 48.68375 9.20132 1296 ft 7 kts 135°
2026-05-06 20:46 48.68371 9.20220 1293 ft 12 kts 75°
2026-05-06 20:46 48.68395 9.20356 1290 ft 15 kts 74°
2026-05-06 20:46 48.68426 9.20519 1289 ft 17 kts 74°
2026-05-06 20:47 48.68453 9.20658 1285 ft 10 kts 73°
2026-05-06 20:47 48.68458 9.20687 1282 ft 3 kts 75°
2026-05-06 20:47 48.68455 9.20710 1283 ft 1 kts 115°
2026-05-06 20:47 48.68446 9.20723 1282 ft 3 kts 135°
2026-05-06 20:48 48.68432 9.20739 1284 ft 2 kts 142°
2026-05-06 20:48 48.68416 9.20750 1287 ft 3 kts 163°
2026-05-06 20:48 48.68408 9.20752 1285 ft 0 kts 166°
2026-05-06 20:48 48.68402 9.20755 1283 ft 2 kts 165°
2026-05-06 20:49 48.68392 9.20759 1287 ft 0 kts 165°